AirNav   TITAN Aviation Fuels
 
 577 users online  

51MI Cass Lake-Cove Island Seaplane Base
Pontiac, Michigan, USA

GOING TO PONTIAC?


FAA INFORMATION EFFECTIVE 22 APRIL 2021

Location

FAA Identifier: 51MI
Lat/Long: 42-36-58.1170N 083-21-21.7710W
42-36.968617N 083-21.362850W
42.6161436,-83.3560475
(estimated)
Elevation: 990 ft. / 302 m (estimated)
Variation: 06W (1990)
From city: 4 miles W of PONTIAC, MI
Time zone: UTC -4 (UTC -5 during Standard Time)
Zip code: 48324

Seaplane Base Operations

Seaplane Base use: Private use. Permission required prior to landing
Activation date: 03/1994
Control tower: no
ARTCC: CLEVELAND CENTER
FSS: LANSING FLIGHT SERVICE STATION
Attendance: UNATNDD
Segmented circle: no

Seaplane Base Communications

WX ASOS at PTK (4 nm NW): 125.025 (248-886-8551)
WX AWOS-3 at VLL (9 nm SE): 119.475 (248-288-4649)
WX ASOS at DET (20 nm SE): PHONE 313-371-9696

Nearby radio navigation aids

VOR radial/distance  VOR name  Freq  Var
SVMr043/16.3SALEM VORTAC114.3003W
DXOr007/24.2DETROIT VOR/DME113.4006W
FNTr147/27.2FLINT VORTAC116.9006W
CRLr011/34.4CARLETON VOR/DME115.7003W

 
NDB name  Hdg/Dist  Freq  Var  ID
GROSSE ILE351/32.241907WRYS .-. -.-- ...

Seaplane Base Services

Runway Information

Runway 9W/27W

Dimensions: 2000 x 100 ft. / 610 x 30 m
Surface: water
RUNWAY 9W  RUNWAY 27W
Traffic pattern: leftleft

Seaplane Base Ownership and Management from official FAA records

Ownership: Privately-owned
Owner: CONNIE HYNES
560 SCOTTS BAY DR
INDIAN RIVER, MI 99749
Phone 231-844-2147
Manager: CONNIE HYNES
560 SCOTTS BAY DR
INDIAN RIVER, MI 99749
Phone 231-844-2147

Seaplane Base Operational Statistics

Aircraft based on the field: 1
Single engine airplanes: 1
    

Additional Remarks

TAKEOFFS & LANDINGS RESTRICTED IN COES BAY; USE LARGE PORTION OF CASS LAKE FOR TAKEOFFS & LANDINGS; STEP TAXI PERMITTED IN COES BAY TO RAMP ON COVE ISLAND.
FOR CD CTC DETROIT APCH AT 800-499-8181.

Instrument Procedures

There are no published instrument procedures at 51MI.

Some nearby airports with instrument procedures:

KPTK - Oakland County International Airport (4 nm NW)
KVLL - Oakland/Troy Airport (9 nm SE)
Y47 - Oakland Southwest Airport (14 nm SW)
1D2 - Canton-Plymouth-Mettetal Airport (17 nm S)
KDET - Coleman A Young Municipal Airport (20 nm SE)
 
Loc | Ops | Rwys | IFR | FBO | Links
Com | Nav | Svcs | Stats | Notes
Area around 51MI (Cass Lake-Cove Island Seaplane Base)
 
Road maps at: MapQuest Bing Google
 
Aerial photo
No photo
 
Sectional chart

 
Airport distance calculator
Flying to Cass Lake-Cove Island Seaplane Base? Find the distance to fly.

From to 51MI

Sunrise and sunset
Times for 06-May-2021
 Local
(UTC-4)
 Zulu
(UTC)
Morning civil twilight05:5109:51
Sunrise06:2210:22
Sunset20:3800:38
Evening civil twilight21:0901:09

Current date and time
Zulu (UTC)  06-May-2021 05:09:06
Local (UTC-4)  06-May-2021 01:09:06
 
METAR
KPTK 
4nm NW 
060453Z AUTO 08003KT 10SM CLR 04/M01 A3012 RMK AO2 SLP204 T00441006 401220044
KVLL 
9nm SE 
060455Z AUTO 00000KT 10SM CLR 05/04 A3015 RMK AO2 T00520040
KDET 
20nm SE 
060453Z 00000KT 10SM CLR 07/03 A3013 RMK AO2 SLP208 T00670033 401390067
TAF
KPTK 
4nm NW 
051728Z 0518/0618 33012KT P6SM BKN035 FM052300 33010KT P6SM SCT050 FM060300 33005KT P6SM FEW200 FM060900 34004KT P6SM OVC080 FM061500 20005KT P6SM OVC060
KDET 
20nm SE 
051728Z 0518/0618 33012KT P6SM BKN035 FM052300 33010KT P6SM SCT050 FM060300 33005KT P6SM FEW200 FM060900 34004KT P6SM OVC080 FM061500 20005KT P6SM OVC060
NOTAMs
Click for the latest NOTAMs
NOTAMs are issued by the DoD/FAA and will open in a separate window not controlled by AirNav.

 

 
 

Would you like to see your business listed on this page?

 If your business provides an interesting product or service to pilots, flight crews, aircraft, or users of the Cass Lake-Cove Island Seaplane Base, you should consider listing it here.  To start the listing process, click on the button below
 
Add a business
 

Other Pages about Cass Lake-Cove Island Seaplane Base

Update a link
 
Copyright © AirNav, LLC. All rights reserved. Privacy Policy  Contact